QPF
0.03 0.03 0.02 0.02 0.02 0.02 0.02 0.02 0.02 0.03 0.03 0.04 0.05 0.05 0.05 0.07 0.07 0.06 0.05 0.05 0.05 0.04 0.03 0.03 0.05 0.06 0.05 0.06 0.06 0.06 0.06 0.08 0.09 0.08 0.07 0.06 0.06 0.05 0.06 0.06 0.07 0.07 0.06
0.02 0.02 0.03 0.03 0.03 0.03 0.02 0.03 0.03 0.03 0.03 0.03 0.04 0.05 0.03 0.05 0.06 0.05 0.05 0.05 0.03 0.03 0.03 0.03 0.04 0.04 0.04 0.04 0.05 0.05 0.05 0.05 0.06 0.05 0.05 0.06 0.06 0.06 0.06 0.07 0.07 0.06 0.05
0.02 0.02 0.03 0.05 0.04 0.04 0.04 0.03 0.03 0.03 0.05 0.05 0.05 0.05 0.04 0.05 0.05 0.04 0.04 0.05 0.04 0.03 0.03 0.03 0.03 0.04 0.03 0.03 0.03 0.03 0.04 0.05 0.05 0.04 0.04 0.06 0.07 0.07 0.06 0.06 0.06 0.05 0.04
0.02 0.03 0.05 0.07 0.06 0.05 0.07 0.05 0.04 0.05 0.06 0.06 0.06 0.06 0.07 0.08 0.07 0.05 0.04 0.04 0.03 0.03 0.03 0.03 0.03 0.03 0.03 0.03 0.03 0.03 0.05 0.06 0.06 0.06 0.06 0.07 0.08 0.08 0.07 0.06 0.06 0.05 0.04
0.05 0.06 0.07 0.08 0.08 0.06 0.07 0.07 0.07 0.06 0.06 0.07 0.07 0.07 0.07 0.08 0.07 0.05 0.04 0.03 0.03 0.03 0.04 0.04 0.04 0.04 0.04 0.03 0.03 0.03 0.04 0.03 0.03 0.03 0.04 0.04 0.04 0.04 0.04 0.04 0.04 0.04 0.04
0.06 0.08 0.06 0.05 0.04 0.06 0.05 0.04 0.07 0.11 0.10 0.07 0.08 0.10 0.09 0.08 0.07 0.05 0.04 0.04 0.03 0.03 0.03 0.03 0.03 0.03 0.03 0.02 0.01 0.02 0.02 0.03 0.02 0.02 0.03 0.03 0.03 0.02 0.02 0.03 0.03 0.03 0.04
0.04 0.03 0.03 0.03 0.03 0.03 0.04 0.04 0.04 0.06 0.11 0.11 0.08 0.08 0.10 0.10 0.08 0.06 0.05 0.04 0.03 0.03 0.03 0.03 0.02 0.01 0.01 0.01 0.01 0.01 0.02 0.02 0.02 0.02 0.02 0.02 0.02 0.02 0.02 0.02 0.02 0.03 0.03
0.05 0.05 0.05 0.04 0.04 0.04 0.03 0.04 0.04 0.03 0.03 0.04 0.04 0.03 0.04 0.06 0.07 0.06 0.06 0.05 0.04 0.04 0.03 0.02 0.02 0.01 0.01 0.01 0.02 0.02 0.02 0.03 0.02 0.02 0.01 0.01 0.01 0.02 0.02 0.02 0.03 0.03 0.03
0.08 0.07 0.06 0.07 0.05 0.04 0.03 0.02 0.02 0.02 0.02 0.01 0.01 0.02 0.02 0.02 0.04 0.05 0.05 0.04 0.04 0.04 0.03 0.02 0.02 0.02 0.03 0.03 0.03 0.02 0.02 0.01 0.02 0.02 0.02 0.02 0.03 0.03 0.03 0.03 0.03 0.03 0.03
0.11 0.13 0.13 0.11 0.07 0.04 0.03 0.02 0.02 0.01 0.01 0.01 0.01 0.02 0.02 0.02 0.03 0.03 0.05 0.04 0.04 0.05 0.04 0.03 0.03 0.03 0.04 0.04 0.04 0.03 0.03 0.02 0.03 0.03 0.03 0.02 0.02 0.02 0.03 0.03 0.03 0.04 0.04
0.11 0.10 0.09 0.07 0.06 0.05 0.03 0.02 0.02 0.02 0.01 0.01 0.01 0.02 0.02 0.04 0.05 0.05 0.05 0.04 0.06 0.06 0.06 0.05 0.06 0.06 0.04 0.04 0.04 0.03 0.03 0.03 0.02 0.02 0.02 0.02 0.02 0.02 0.02 0.02 0.03 0.03 0.03
0.11 0.09 0.06 0.05 0.05 0.04 0.02 0.02 0.02 0.02 0.02 0.02 0.02 0.02 0.02 0.03 0.05 0.06 0.05 0.04 0.04 0.05 0.05 0.06 0.06 0.05 0.04 0.03 0.03 0.04 0.05 0.04 0.03 0.03 0.03 0.02 0.02 0.02 0.02 0.03 0.04 0.04 0.03
0.10 0.08 0.07 0.06 0.05 0.04 0.03 0.02 0.02 0.02 0.01 0.01 0.01 0.02 0.02 0.02 0.03 0.03 0.03 0.03 0.03 0.02 0.02 0.03 0.03 0.03 0.03 0.02 0.03 0.03 0.03 0.03 0.03 0.03 0.03 0.03 0.02 0.02 0.02 0.02 0.02 0.02 0.02
0.08 0.07 0.07 0.07 0.07 0.06 0.04 0.02 0.03 0.03 0.02 0.01 0.01 0.01 0.01 0.01 0.02 0.02 0.02 0.02 0.02 0.02 0.01 0.02 0.02 0.02 0.02 0.02 0.03 0.03 0.03 0.04 0.05 0.05 0.05 0.04 0.04 0.03 0.03 0.02 0.02 0.02 0.02
0.06 0.06 0.06 0.06 0.07 0.05 0.03 0.02 0.02 0.02 0.02 0.02 0.02 0.02 0.02 0.02 0.03 0.03 0.02 0.02 0.02 0.02 0.02 0.02 0.02 0.03 0.03 0.03 0.03 0.03 0.03 0.03 0.03 0.02 0.02 0.02 0.02 0.02 0.02 0.02 0.02 0.01 0.01
0.05 0.06 0.06 0.05 0.04 0.04 0.03 0.02 0.02 0.02 0.03 0.03 0.03 0.03 0.03 0.04 0.05 0.04 0.04 0.03 0.03 0.03 0.03 0.03 0.03 0.03 0.03 0.02 0.02 0.02 0.01 0.01 0.01 0.01 0.01 0.01 0.01 0.00 0.01 0.01 0.01 0.01 0.01
0.04 0.05 0.05 0.05 0.05 0.04 0.03 0.03 0.03 0.03 0.03 0.04 0.04 0.05 0.04 0.05 0.05 0.04 0.03 0.03 0.03 0.03 0.02 0.02 0.02 0.01 0.01 0.01 0.01 0.01 0.01 0.01 0.01 0.01 0.01 0.00 0.00 0.01 0.01 0.01 0.01 0.01 0.01
0.04 0.04 0.05 0.04 0.05 0.04 0.05 0.04 0.04 0.03 0.04 0.04 0.06 0.07 0.07 0.06 0.05 0.04 0.04 0.03 0.02 0.02 0.01 0.01 0.01 0.01 0.01 0.01 0.01 0.01 0.01 0.01 0.01 0.00 0.00 0.01 0.01 0.01 0.01 0.01 0.01 0.01 0.00
0.04 0.05 0.05 0.05 0.05 0.05 0.05 0.05 0.05 0.05 0.05 0.05 0.05 0.06 0.06 0.05 0.04 0.03 0.03 0.02 0.01 0.01 0.01 0.01 0.01 0.01 0.01 0.01 0.01 0.01 0.00 0.00 0.00 0.00 0.00 0.01 0.01 0.01 0.01 0.01 0.01 0.01 0.01
0.03 0.04 0.05 0.04 0.04 0.03 0.03 0.03 0.04 0.05 0.05 0.06 0.05 0.04 0.04 0.03 0.02 0.02 0.02 0.02 0.02 0.02 0.02 0.02 0.02 0.02 0.02 0.01 0.01 0.01 0.01 0.01 0.01 0.01 0.01 0.01 0.02 0.02 0.02 0.01 0.01 0.01 0.00
0.03 0.03 0.05 0.04 0.04 0.04 0.05 0.06 0.07 0.08 0.08 0.08 0.07 0.06 0.05 0.03 0.02 0.02 0.03 0.03 0.03 0.03 0.03 0.03 0.03 0.03 0.02 0.02 0.02 0.01 0.01 0.01 0.01 0.01 0.01 0.01 0.01 0.02 0.02 0.01 0.01 0.01 0.00
0.03 0.04 0.04 0.04 0.04 0.04 0.04 0.04 0.04 0.04 0.04 0.05 0.04 0.04 0.03 0.02 0.02 0.02 0.02 0.02 0.02 0.02 0.02 0.02 0.01 0.02 0.02 0.02 0.02 0.01 0.01 0.01 0.01 0.01 0.01 0.01 0.01 0.01 0.01 0.01 0.01 0.01 0.01
0.02 0.03 0.02 0.02 0.02 0.02 0.02 0.02 0.02 0.02 0.02 0.02 0.02 0.02 0.02 0.02 0.02 0.02 0.02 0.01 0.01 0.02 0.02 0.02 0.02 0.02 0.02 0.02 0.01 0.01 0.01 0.01 0.01 0.01 0.01 0.01 0.01 0.01 0.01 0.01 0.01 0.01 0.01
0.02 0.02 0.02 0.02 0.02 0.02 0.02 0.02 0.02 0.01 0.01 0.01 0.02 0.03 0.03 0.03 0.03 0.02 0.02 0.02 0.02 0.02 0.02 0.02 0.02 0.03 0.03 0.02 0.02 0.02 0.01 0.02 0.02 0.02 0.02 0.01 0.01 0.01 0.01 0.02 0.02 0.02 0.02
0.02 0.02 0.01 0.02 0.02 0.02 0.02 0.02 0.02 0.02 0.02 0.02 0.02 0.02 0.02 0.02 0.02 0.02 0.02 0.01 0.01 0.02 0.02 0.02 0.02 0.02 0.02 0.02 0.02 0.02 0.02 0.02 0.02 0.02 0.02 0.02 0.02 0.02 0.02 0.02 0.02 0.02 0.03
0.03 0.03 0.02 0.02 0.02 0.02 0.02 0.02 0.02 0.02 0.02 0.02 0.02 0.02 0.01 0.01 0.01 0.01 0.00 0.00 0.00 0.01 0.01 0.01 0.01 0.01 0.01 0.02 0.02 0.02 0.03 0.03 0.03 0.03 0.02 0.02 0.02 0.03 0.03 0.02 0.02 0.02 0.02
MSLP
1016.26 1016.59 1016.90 1017.17 1017.34 1017.43 1017.45 1017.43 1017.41 1017.43 1017.49 1017.61 1017.75 1017.88 1017.96 1017.95 1017.85 1017.66 1017.40 1017.11 1016.84 1016.62 1016.47 1016.41 1016.41 1016.45 1016.48 1016.46 1016.38 1016.22 1015.99 1015.71 1015.42 1015.16 1014.95 1014.83 1014.80 1014.86 1014.98 1015.14 1015.32 1015.49 1015.63
1016.03 1016.35 1016.68 1016.97 1017.19 1017.34 1017.43 1017.49 1017.54 1017.62 1017.73 1017.86 1018.00 1018.12 1018.17 1018.14 1018.01 1017.80 1017.53 1017.22 1016.93 1016.69 1016.52 1016.41 1016.36 1016.32 1016.28 1016.20 1016.06 1015.85 1015.59 1015.30 1015.03 1014.80 1014.66 1014.62 1014.68 1014.83 1015.06 1015.33 1015.60 1015.86 1016.09
1015.93 1016.25 1016.59 1016.90 1017.17 1017.39 1017.56 1017.70 1017.82 1017.96 1018.11 1018.27 1018.41 1018.50 1018.53 1018.47 1018.32 1018.09 1017.80 1017.49 1017.21 1016.96 1016.77 1016.64 1016.55 1016.47 1016.37 1016.22 1016.01 1015.75 1015.45 1015.15 1014.88 1014.67 1014.57 1014.59 1014.72 1014.96 1015.28 1015.64 1016.02 1016.38 1016.70
1015.92 1016.23 1016.58 1016.92 1017.24 1017.52 1017.76 1017.99 1018.20 1018.40 1018.60 1018.78 1018.92 1018.99 1018.99 1018.90 1018.72 1018.47 1018.18 1017.88 1017.60 1017.37 1017.19 1017.05 1016.95 1016.83 1016.69 1016.50 1016.25 1015.94 1015.60 1015.27 1014.99 1014.79 1014.70 1014.74 1014.92 1015.21 1015.59 1016.03 1016.49 1016.95 1017.38
1015.95 1016.24 1016.57 1016.93 1017.29 1017.63 1017.95 1018.26 1018.56 1018.83 1019.09 1019.30 1019.45 1019.52 1019.49 1019.37 1019.17 1018.91 1018.61 1018.32 1018.06 1017.85 1017.69 1017.57 1017.47 1017.36 1017.21 1016.99 1016.71 1016.38 1016.01 1015.66 1015.35 1015.13 1015.03 1015.07 1015.25 1015.56 1015.97 1016.45 1016.97 1017.50 1018.01
1015.93 1016.18 1016.49 1016.85 1017.22 1017.62 1018.01 1018.41 1018.79 1019.16 1019.48 1019.74 1019.92 1019.99 1019.96 1019.82 1019.61 1019.33 1019.04 1018.76 1018.52 1018.34 1018.21 1018.12 1018.05 1017.96 1017.82 1017.61 1017.33 1016.99 1016.61 1016.24 1015.91 1015.67 1015.54 1015.55 1015.70 1015.98 1016.38 1016.86 1017.40 1017.96 1018.54
1015.82 1016.00 1016.26 1016.59 1016.97 1017.40 1017.86 1018.34 1018.83 1019.29 1019.69 1020.03 1020.25 1020.35 1020.33 1020.20 1019.98 1019.71 1019.42 1019.15 1018.94 1018.79 1018.69 1018.65 1018.61 1018.55 1018.45 1018.27 1018.02 1017.69 1017.33 1016.96 1016.62 1016.35 1016.19 1016.15 1016.25 1016.47 1016.82 1017.26 1017.77 1018.34 1018.93
1015.57 1015.67 1015.86 1016.14 1016.50 1016.95 1017.47 1018.03 1018.61 1019.17 1019.68 1020.11 1020.40 1020.56 1020.58 1020.48 1020.28 1020.02 1019.74 1019.50 1019.30 1019.18 1019.12 1019.11 1019.11 1019.10 1019.04 1018.91 1018.70 1018.42 1018.09 1017.74 1017.41 1017.13 1016.94 1016.85 1016.89 1017.04 1017.31 1017.68 1018.13 1018.65 1019.21
1015.23 1015.21 1015.31 1015.52 1015.86 1016.31 1016.87 1017.50 1018.17 1018.84 1019.46 1019.99 1020.38 1020.62 1020.71 1020.66 1020.50 1020.27 1020.03 1019.80 1019.63 1019.53 1019.50 1019.51 1019.55 1019.58 1019.56 1019.48 1019.33 1019.11 1018.83 1018.53 1018.23 1017.96 1017.76 1017.64 1017.62 1017.71 1017.89 1018.16 1018.52 1018.96 1019.46
1014.84 1014.71 1014.70 1014.83 1015.12 1015.57 1016.15 1016.84 1017.59 1018.36 1019.09 1019.73 1020.23 1020.56 1020.74 1020.76 1020.67 1020.49 1020.29 1020.10 1019.95 1019.87 1019.85 1019.88 1019.94 1019.99 1020.02 1019.99 1019.89 1019.74 1019.53 1019.29 1019.04 1018.81 1018.62 1018.50 1018.44 1018.47 1018.57 1018.75 1019.01 1019.34 1019.74
1014.47 1014.23 1014.12 1014.17 1014.41 1014.83 1015.42 1016.15 1016.96 1017.82 1018.64 1019.38 1019.98 1020.43 1020.70 1020.81 1020.80 1020.69 1020.54 1020.39 1020.28 1020.21 1020.20 1020.24 1020.30 1020.37 1020.42 1020.43 1020.38 1020.29 1020.15 1019.99 1019.81 1019.64 1019.49 1019.39 1019.32 1019.31 1019.35 1019.45 1019.61 1019.83 1020.11
1014.19 1013.85 1013.65 1013.62 1013.80 1014.19 1014.78 1015.52 1016.38 1017.28 1018.18 1019.00 1019.70 1020.24 1020.61 1020.82 1020.89 1020.86 1020.78 1020.68 1020.60 1020.55 1020.55 1020.58 1020.64 1020.71 1020.77 1020.80 1020.79 1020.75 1020.69 1020.60 1020.50 1020.40 1020.32 1020.25 1020.21 1020.18 1020.19 1020.23 1020.30 1020.42 1020.59
1014.01 1013.59 1013.32 1013.23 1013.36 1013.71 1014.27 1015.01 1015.88 1016.81 1017.74 1018.62 1019.38 1020.00 1020.45 1020.75 1020.92 1020.98 1020.97 1020.93 1020.89 1020.86 1020.87 1020.90 1020.95 1021.01 1021.06 1021.10 1021.12 1021.12 1021.11 1021.09 1021.07 1021.05 1021.04 1021.02 1021.02 1021.01 1021.01 1021.01 1021.03 1021.07 1021.15
1013.92 1013.44 1013.12 1012.98 1013.07 1013.38 1013.91 1014.63 1015.48 1016.40 1017.34 1018.23 1019.03 1019.70 1020.22 1020.59 1020.84 1020.98 1021.05 1021.07 1021.08 1021.09 1021.11 1021.14 1021.18 1021.23 1021.28 1021.32 1021.35 1021.38 1021.41 1021.45 1021.49 1021.54 1021.59 1021.64 1021.68 1021.71 1021.72 1021.71 1021.70 1021.69 1021.70
1013.84 1013.34 1012.99 1012.82 1012.88 1013.16 1013.65 1014.32 1015.13 1016.03 1016.94 1017.82 1018.62 1019.31 1019.87 1020.30 1020.61 1020.83 1020.97 1021.06 1021.13 1021.18 1021.22 1021.27 1021.32 1021.36 1021.40 1021.44 1021.48 1021.52 1021.58 1021.65 1021.74 1021.84 1021.94 1022.04 1022.13 1022.19 1022.23 1022.24 1022.22 1022.20 1022.18
1013.71 1013.20 1012.83 1012.66 1012.69 1012.95 1013.41 1014.04 1014.80 1015.65 1016.51 1017.36 1018.14 1018.82 1019.40 1019.86 1020.23 1020.50 1020.71 1020.87 1021.00 1021.10 1021.19 1021.26 1021.32 1021.38 1021.42 1021.46 1021.50 1021.56 1021.63 1021.72 1021.83 1021.96 1022.09 1022.22 1022.34 1022.43 1022.50 1022.53 1022.54 1022.52 1022.50
1013.45 1012.94 1012.58 1012.41 1012.45 1012.70 1013.13 1013.73 1014.45 1015.24 1016.05 1016.85 1017.59 1018.26 1018.83 1019.31 1019.71 1020.03 1020.30 1020.52 1020.71 1020.87 1021.00 1021.12 1021.21 1021.29 1021.35 1021.41 1021.46 1021.52 1021.59 1021.69 1021.80 1021.93 1022.07 1022.21 1022.34 1022.46 1022.54 1022.60 1022.63 1022.64 1022.65
1013.03 1012.54 1012.21 1012.06 1012.11 1012.36 1012.79 1013.37 1014.05 1014.80 1015.57 1016.32 1017.02 1017.66 1018.23 1018.71 1019.13 1019.49 1019.80 1020.07 1020.31 1020.53 1020.72 1020.89 1021.03 1021.15 1021.24 1021.32 1021.39 1021.46 1021.53 1021.62 1021.72 1021.84 1021.97 1022.09 1022.21 1022.32 1022.42 1022.49 1022.55 1022.59 1022.63
1012.49 1012.02 1011.71 1011.60 1011.68 1011.96 1012.40 1012.97 1013.64 1014.36 1015.10 1015.82 1016.49 1017.11 1017.66 1018.14 1018.57 1018.95 1019.29 1019.61 1019.90 1020.17 1020.41 1020.63 1020.83 1020.99 1021.13 1021.24 1021.34 1021.42 1021.50 1021.58 1021.66 1021.75 1021.85 1021.95 1022.04 1022.13 1022.22 1022.29 1022.37 1022.43 1022.51
1011.89 1011.44 1011.18 1011.11 1011.24 1011.55 1012.01 1012.60 1013.27 1013.99 1014.71 1015.42 1016.07 1016.67 1017.21 1017.68 1018.11 1018.51 1018.87 1019.21 1019.54 1019.84 1020.14 1020.41 1020.65 1020.87 1021.05 1021.21 1021.34 1021.44 1021.53 1021.61 1021.67 1021.73 1021.79 1021.85 1021.91 1021.97 1022.03 1022.09 1022.16 1022.24 1022.33
1011.34 1010.93 1010.71 1010.68 1010.85 1011.20 1011.71 1012.32 1013.01 1013.73 1014.45 1015.15 1015.79 1016.38 1016.91 1017.39 1017.81 1018.21 1018.58 1018.93 1019.27 1019.61 1019.94 1020.24 1020.53 1020.79 1021.03 1021.23 1021.39 1021.52 1021.63 1021.71 1021.76 1021.80 1021.83 1021.85 1021.86 1021.88 1021.91 1021.95 1022.00 1022.08 1022.17
1010.95 1010.58 1010.39 1010.41 1010.62 1011.01 1011.54 1012.18 1012.88 1013.62 1014.34 1015.04 1015.68 1016.26 1016.78 1017.25 1017.67 1018.06 1018.42 1018.78 1019.12 1019.47 1019.81 1020.14 1020.46 1020.76 1021.03 1021.27 1021.47 1021.63 1021.76 1021.84 1021.90 1021.93 1021.93 1021.92 1021.91 1021.89 1021.88 1021.89 1021.92 1021.97 1022.04
1010.82 1010.48 1010.33 1010.38 1010.62 1011.03 1011.58 1012.22 1012.92 1013.65 1014.37 1015.06 1015.69 1016.26 1016.77 1017.23 1017.64 1018.01 1018.37 1018.71 1019.04 1019.38 1019.72 1020.06 1020.39 1020.70 1021.00 1021.26 1021.50 1021.69 1021.84 1021.95 1022.02 1022.05 1022.05 1022.03 1021.99 1021.95 1021.92 1021.90 1021.90 1021.92 1021.95
1010.98 1010.67 1010.55 1010.62 1010.87 1011.28 1011.81 1012.43 1013.11 1013.81 1014.50 1015.16 1015.77 1016.32 1016.82 1017.25 1017.65 1018.00 1018.33 1018.65 1018.97 1019.29 1019.61 1019.94 1020.26 1020.58 1020.88 1021.16 1021.42 1021.63 1021.81 1021.94 1022.03 1022.08 1022.09 1022.08 1022.04 1022.00 1021.96 1021.92 1021.89 1021.87 1021.87
1011.42 1011.15 1011.05 1011.12 1011.35 1011.73 1012.22 1012.79 1013.41 1014.05 1014.69 1015.30 1015.86 1016.38 1016.84 1017.25 1017.62 1017.95 1018.26 1018.56 1018.85 1019.14 1019.43 1019.73 1020.04 1020.34 1020.64 1020.92 1021.18 1021.41 1021.61 1021.76 1021.88 1021.96 1022.00 1022.01 1022.00 1021.97 1021.93 1021.88 1021.84 1021.80 1021.76
1012.10 1011.86 1011.78 1011.84 1012.03 1012.35 1012.77 1013.25 1013.79 1014.34 1014.89 1015.43 1015.93 1016.39 1016.81 1017.18 1017.52 1017.83 1018.12 1018.38 1018.64 1018.90 1019.17 1019.43 1019.71 1019.98 1020.26 1020.53 1020.78 1021.02 1021.23 1021.41 1021.55 1021.67 1021.75 1021.79 1021.81 1021.81 1021.79 1021.76 1021.71 1021.66 1021.60
Thickness
5752 5749 5746 5744 5743 5741 5740 5739 5738 5737 5736 5735 5733 5732 5731 5730 5729 5728 5726 5724 5722 5720 5719 5717 5716 5715 5714 5712 5711 5709 5707 5704 5699 5696 5694 5692 5689 5686 5683 5681 5678 5676 5672
5752 5749 5746 5743 5741 5739 5738 5738 5737 5735 5734 5733 5731 5729 5728 5727 5725 5724 5722 5720 5718 5716 5714 5713 5711 5710 5708 5707 5705 5704 5702 5699 5696 5691 5687 5684 5681 5678 5675 5672 5669 5666 5663
5751 5747 5744 5741 5739 5737 5736 5736 5734 5733 5731 5729 5728 5725 5724 5723 5721 5719 5718 5715 5713 5712 5710 5708 5706 5704 5703 5701 5700 5698 5696 5693 5690 5686 5681 5677 5673 5670 5666 5662 5659 5655 5653
5749 5745 5741 5738 5736 5734 5733 5732 5731 5729 5727 5725 5723 5722 5720 5719 5717 5715 5713 5710 5708 5706 5705 5703 5701 5699 5697 5695 5693 5691 5688 5685 5682 5678 5673 5669 5665 5661 5657 5653 5648 5645 5642
5747 5742 5739 5737 5734 5732 5730 5728 5727 5725 5723 5721 5719 5717 5716 5714 5712 5710 5708 5705 5702 5700 5698 5696 5695 5693 5691 5689 5686 5683 5680 5677 5673 5669 5664 5660 5656 5652 5648 5644 5639 5635 5631
5745 5741 5738 5735 5732 5730 5727 5725 5723 5720 5718 5716 5714 5712 5710 5709 5707 5705 5703 5700 5696 5693 5691 5688 5686 5684 5682 5681 5678 5676 5673 5669 5665 5661 5656 5652 5648 5644 5640 5635 5630 5627 5622
5740 5737 5734 5731 5729 5727 5724 5721 5717 5714 5712 5710 5708 5706 5704 5702 5701 5699 5697 5693 5689 5686 5683 5681 5679 5676 5673 5671 5668 5666 5663 5660 5657 5654 5649 5644 5640 5636 5632 5627 5622 5618 5613
5735 5732 5729 5727 5724 5722 5719 5716 5712 5709 5706 5704 5701 5699 5697 5696 5694 5692 5689 5686 5682 5678 5676 5673 5670 5667 5665 5662 5659 5656 5652 5649 5646 5644 5640 5637 5633 5629 5625 5620 5614 5607 5602
5730 5727 5725 5722 5720 5717 5713 5710 5707 5704 5701 5697 5694 5692 5691 5689 5687 5685 5682 5679 5675 5671 5668 5665 5663 5660 5657 5654 5651 5646 5642 5638 5636 5633 5630 5626 5623 5619 5614 5610 5604 5600 5595
5726 5724 5722 5718 5715 5712 5709 5706 5702 5698 5694 5691 5687 5685 5683 5682 5680 5678 5676 5672 5668 5663 5660 5656 5654 5651 5648 5645 5642 5638 5633 5629 5626 5623 5619 5615 5611 5607 5603 5600 5596 5591 5586
5722 5720 5717 5713 5710 5707 5703 5700 5696 5692 5688 5683 5680 5677 5675 5674 5672 5670 5668 5665 5660 5656 5651 5647 5644 5641 5639 5635 5632 5629 5624 5619 5615 5612 5608 5604 5600 5596 5592 5588 5584 5581 5577
5717 5714 5710 5707 5703 5700 5697 5692 5689 5685 5680 5675 5672 5669 5667 5665 5664 5662 5659 5656 5652 5648 5643 5639 5635 5632 5629 5625 5621 5618 5613 5609 5605 5601 5597 5592 5588 5584 5580 5577 5573 5569 5565
5711 5706 5703 5700 5696 5692 5689 5685 5680 5677 5673 5668 5665 5662 5658 5656 5654 5653 5650 5647 5643 5638 5634 5630 5626 5623 5619 5615 5612 5608 5604 5600 5595 5591 5587 5581 5577 5573 5570 5566 5562 5559 5555
5703 5698 5695 5692 5688 5683 5680 5677 5673 5669 5666 5662 5658 5655 5651 5648 5645 5643 5641 5637 5633 5629 5624 5620 5617 5612 5609 5605 5601 5597 5593 5589 5585 5581 5576 5571 5567 5563 5560 5556 5552 5548 5545
5695 5691 5688 5685 5681 5676 5672 5667 5665 5662 5659 5656 5652 5649 5645 5641 5638 5635 5632 5628 5624 5619 5614 5610 5606 5602 5598 5594 5590 5586 5582 5578 5574 5570 5566 5562 5558 5554 5550 5546 5542 5539 5535
5687 5683 5680 5676 5672 5668 5663 5657 5654 5652 5649 5646 5643 5640 5636 5633 5630 5626 5623 5619 5615 5610 5606 5600 5596 5592 5589 5584 5580 5576 5572 5568 5564 5560 5556 5552 5549 5545 5540 5536 5532 5529 5526
5680 5676 5672 5668 5664 5660 5656 5652 5647 5642 5639 5636 5633 5631 5628 5624 5621 5617 5614 5610 5605 5600 5596 5592 5587 5583 5579 5575 5571 5567 5563 5559 5555 5551 5547 5543 5539 5535 5532 5528 5524 5520 5517
5671 5667 5663 5659 5654 5651 5647 5644 5640 5636 5631 5626 5622 5620 5617 5614 5610 5607 5604 5600 5595 5591 5587 5583 5579 5575 5570 5566 5562 5558 5554 5550 5546 5542 5538 5534 5531 5527 5523 5520 5516 5512 5509
5660 5657 5653 5648 5644 5641 5637 5633 5629 5626 5622 5617 5613 5609 5606 5603 5600 5597 5594 5591 5588 5583 5579 5575 5571 5566 5562 5558 5554 5549 5546 5542 5539 5535 5531 5527 5523 5519 5515 5512 5509 5503 5500
5649 5646 5643 5638 5633 5630 5627 5623 5619 5615 5612 5607 5603 5599 5595 5593 5590 5586 5583 5581 5578 5574 5570 5566 5562 5558 5554 5550 5546 5542 5539 5534 5531 5527 5524 5520 5516 5512 5509 5505 5502 5499 5495
5638 5635 5632 5628 5624 5620 5616 5613 5609 5606 5602 5598 5594 5589 5586 5584 5580 5577 5574 5571 5568 5565 5561 5558 5554 5550 5547 5543 5539 5535 5532 5528 5524 5521 5517 5513 5510 5507 5503 5500 5497 5493 5491
5628 5624 5621 5617 5613 5609 5606 5603 5599 5595 5592 5589 5585 5580 5576 5574 5571 5568 5565 5563 5560 5557 5554 5550 5546 5543 5539 5536 5532 5529 5525 5522 5519 5515 5512 5508 5504 5501 5498 5494 5491 5489 5486
5618 5614 5610 5607 5603 5599 5596 5592 5589 5586 5583 5580 5576 5572 5568 5565 5562 5560 5557 5554 5551 5548 5545 5541 5538 5535 5532 5528 5525 5522 5519 5516 5513 5509 5505 5502 5499 5496 5492 5489 5486 5484 5481
5608 5604 5601 5597 5593 5590 5587 5584 5580 5578 5575 5572 5568 5564 5561 5557 5554 5552 5549 5545 5543 5540 5536 5533 5531 5528 5525 5522 5519 5516 5513 5510 5506 5503 5500 5497 5494 5490 5487 5484 5481 5479 5476
5598 5595 5591 5588 5585 5582 5579 5576 5573 5570 5567 5564 5560 5557 5554 5550 5547 5545 5542 5538 5535 5532 5529 5526 5523 5520 5518 5515 5512 5510 5507 5504 5501 5498 5494 5491 5488 5485 5482 5479 5476 5473 5471
5588 5585 5582 5579 5576 5573 5570 5567 5565 5562 5559 5556 5553 5550 5546 5543 5540 5538 5534 5531 5527 5524 5521 5518 5516 5513 5511 5508 5505 5503 5500 5498 5495 5491 5488 5484 5481 5479 5475 5472 5470 5467 5464